Retour au catalogue

KUIPER-00060

ActifCommunicationsLEO
NORAD 64520·PAYLOAD·🇺🇸 United States

Lancé Jun 23, 2025 depuis Cape Canaveral Space Force Station

Loading…

Prochains Passages (prochaines 24 heures)

TLE

FraisSource: CelesTrak SupGP

Époque: Sep 14, 2026, 22:05 UTC

1 64520C 25134W   26257.92025463  .00005430  00000+0  71103-3 0  2578
2 64520  51.9005 103.8851 0000702 100.0741  28.5834 14.79913840    14

Suivez KUIPER-00060 en temps réel avec AllMySat

Download on the App Store